Theta_e
316 316 316 316 316 316 316 316 316 315 315 315 316 316 316 316 316 317 317 317 316 316 316 317 318 319 314 304 305 314 337 333 315 311 307 306 306 305 303 304 303 301 304 304 307 306 305
315 315 315 315 315 315 315 315 315 315 315 315 315 315 315 315 315 316 316 316 316 316 316 317 318 321 310 301 310 323 319 316 317 313 309 307 307 308 306 304 303 305 304 305 305 306 306
315 315 314 314 315 314 315 315 315 314 315 315 315 314 314 315 316 316 316 315 315 315 318 318 319 318 306 305 313 317 318 316 321 315 312 311 310 309 307 305 305 304 302 305 305 306 306
316 315 314 314 314 314 314 314 314 314 314 315 315 314 314 315 315 315 316 315 315 318 319 318 322 316 304 311 315 319 318 316 316 317 315 315 312 309 306 306 304 301 302 302 306 306 307
317 316 315 314 314 313 313 314 314 314 314 314 315 314 314 314 315 315 314 314 316 321 321 322 316 314 308 321 317 316 318 314 311 311 313 312 311 306 305 302 300 302 299 299 303 306 305
318 317 316 315 315 314 313 313 313 314 314 314 314 313 313 313 314 314 313 314 317 319 321 319 317 308 314 311 318 316 313 312 310 310 310 309 307 306 304 303 296 298 299 301 300 305 306
319 318 317 316 315 314 312 312 313 313 313 313 313 313 313 313 313 312 311 308 306 306 306 303 304 305 308 314 315 312 311 310 309 309 303 305 305 301 302 303 301 300 299 299 303 304 303
319 319 318 316 315 315 312 312 312 312 312 312 312 313 313 312 312 312 309 305 303 304 300 304 304 305 309 312 305 311 312 307 305 301 302 304 301 304 304 303 301 300 300 301 304 303 303
319 318 318 317 316 315 313 311 311 311 312 312 312 312 313 312 311 308 305 305 307 305 300 303 305 305 306 309 305 308 310 306 303 300 300 300 303 304 302 303 301 301 301 301 300 303 303
318 318 317 316 315 314 313 311 311 311 311 312 312 312 312 310 308 303 305 305 306 305 302 304 305 307 307 307 305 310 311 308 303 300 300 301 303 301 302 301 302 300 303 301 301 301 298
318 318 317 315 314 314 313 311 311 311 311 312 312 312 312 309 303 302 305 306 307 307 292 306 305 311 307 305 307 307 311 309 302 301 303 301 302 302 302 303 303 302 304 302 301 301 300
318 318 317 315 315 314 312 311 311 311 311 311 312 312 311 306 304 305 305 306 309 299 291 303 305 303 304 305 306 307 307 310 307 304 303 303 305 304 305 305 304 304 303 302 301 301 297
318 317 316 316 315 313 311 311 311 311 311 311 311 311 308 307 304 305 306 309 297 295 304 300 300 303 303 302 304 304 303 303 301 298 299 302 303 305 306 303 304 304 303 296 295 295 293
317 316 316 314 314 312 311 310 310 310 310 310 309 307 304 306 306 305 307 305 294 299 299 305 302 302 300 302 302 302 301 301 304 301 300 298 297 304 308 303 301 301 302 297 289 291 294
317 315 315 315 314 313 312 310 310 309 309 309 305 302 302 304 305 305 306 296 298 299 302 301 302 299 299 301 301 302 303 302 305 305 299 299 298 306 307 307 304 302 300 301 297 295 294
316 315 315 315 314 314 312 311 310 310 309 306 301 301 306 308 307 307 302 294 299 303 303 302 297 299 297 299 300 302 302 305 304 307 306 302 298 303 307 308 308 305 303 299 301 292 290
315 315 315 314 313 313 313 312 310 310 309 303 301 305 307 308 306 304 296 296 298 303 304 301 299 299 299 298 300 300 300 303 306 306 307 306 302 302 305 304 302 304 303 300 300 297 293
315 315 315 314 313 313 312 311 310 309 305 302 302 300 308 306 299 296 296 297 298 302 305 304 304 302 300 299 300 300 300 303 308 306 302 305 304 300 299 304 305 304 301 301 299 295 298
315 315 315 314 313 312 312 311 310 309 304 300 301 302 309 307 295 295 298 299 303 303 302 302 301 303 303 300 298 300 302 307 307 307 303 305 301 296 297 302 305 302 302 302 301 300 297
314 314 314 314 313 312 311 311 310 309 302 301 301 299 303 303 300 297 298 299 301 305 303 303 302 303 301 299 303 300 301 305 306 308 309 309 302 298 293 296 301 299 300 302 300 296 296
314 314 314 314 313 313 312 311 310 308 303 300 300 300 300 297 299 300 300 300 300 300 303 305 303 301 300 298 300 300 303 304 305 307 307 307 299 300 300 300 301 300 300 301 300 301 296
313 314 314 314 313 313 312 311 310 307 302 298 297 300 300 300 299 300 297 299 300 302 303 301 303 302 303 302 302 300 302 303 303 306 304 305 299 301 298 300 300 298 300 301 301 300 299
313 314 314 314 313 313 312 311 310 307 302 296 297 300 302 295 298 299 299 300 302 305 304 305 306 304 303 304 306 306 308 306 305 303 301 301 301 298 293 298 298 294 297 298 302 304 304
313 313 314 313 313 312 312 311 310 307 302 299 300 302 300 296 298 300 300 301 302 303 303 304 306 305 306 310 308 307 305 303 303 303 305 301 300 299 294 296 288 297 304 302 302 303 305
314 314 314 313 313 312 312 311 310 308 303 301 300 301 300 297 299 299 301 301 302 304 304 305 305 306 308 306 302 299 300 300 299 301 301 302 301 296 293 293 295 297 300 300 299 300 304
314 314 313 313 313 313 312 311 311 309 305 303 300 301 301 301 299 300 300 300 301 302 303 303 306 307 307 303 300 294 293 295 295 297 301 301 301 299 294 289 287 296 302 305 305 296 302
313 313 313 313 313 313 313 312 311 309 306 304 302 302 302 300 300 301 301 301 301 301 302 302 303 305 305 300 297 295 294 297 293 292 295 296 297 294 293 291 295 300 302 305 294 297 306
308 313 312 312 313 313 313 312 311 310 307 305 300 301 303 301 300 301 301 301 301 303 302 302 302 302 301 298 297 296 295 297 295 296 295 294 293 294 293 291 289 302 302 296 302 306 304
307 312 312 312 312 312 312 312 312 310 308 304 302 304 305 302 301 303 303 303 303 305 304 301 302 301 302 300 299 298 296 297 295 292 299 294 298 296 297 296 302 304 303 306 307 303 303
Wind_Speed
5 5 4 5 7 7 7 9 10 11 12 13 15 17 18 19 20 19 18 18 19 18 16 15 13 10 1 2 3 2 4 5 4 2 2 3 2 2 2 1 2 3 4 4 10 11 10
4 3 3 3 6 6 8 10 11 11 11 13 15 18 19 20 20 19 19 19 19 17 15 12 9 6 1 1 3 4 4 3 2 2 2 2 2 1 3 1 2 2 9 12 8 6 5
1 1 1 3 4 5 7 8 9 10 12 13 16 18 20 20 20 21 20 20 19 17 12 7 5 2 2 4 2 3 2 2 2 1 1 2 2 1 1 1 2 3 8 6 2 3 3
3 2 0 1 2 6 7 9 10 11 14 16 15 17 20 21 22 23 22 21 18 11 2 3 5 2 4 2 1 7 4 3 4 3 2 2 3 3 1 1 2 2 1 3 5 10 3
5 4 2 2 1 3 5 7 9 12 15 16 16 18 20 23 24 25 23 21 8 2 6 6 2 1 1 2 1 2 3 1 3 4 1 4 2 3 1 2 2 5 3 5 7 4 6
7 5 5 4 2 2 4 6 9 12 14 16 17 19 20 23 25 26 24 7 1 1 2 4 2 3 1 4 5 4 1 1 2 4 3 3 4 2 2 4 4 4 3 4 5 5 6
8 6 6 5 4 3 3 6 11 13 14 16 18 19 21 24 26 25 12 1 5 1 5 2 5 4 4 8 4 1 1 3 2 6 2 3 1 4 4 3 2 3 4 5 5 3 4
9 8 8 7 6 4 4 7 8 10 13 15 18 20 22 24 25 19 4 7 3 4 8 2 6 7 6 2 3 2 2 2 3 2 0 1 2 1 4 3 4 4 5 3 7 3 4
10 9 8 7 6 5 4 3 6 9 12 14 16 19 21 26 21 5 5 5 5 7 3 6 3 3 2 5 2 2 2 2 2 2 1 0 2 3 2 6 1 2 3 4 5 6 3
13 11 9 9 7 6 5 3 6 10 13 14 15 17 19 30 3 5 1 4 6 6 2 4 1 2 3 2 1 1 1 2 2 2 2 2 2 3 5 2 1 2 3 3 5 6 4
13 12 10 9 7 6 4 3 6 8 11 12 13 15 14 10 4 4 5 10 2 3 3 2 3 3 3 1 1 5 1 2 2 2 2 1 3 5 4 1 3 3 2 3 2 1 1
15 13 12 11 8 6 4 3 6 7 10 12 14 14 15 1 2 5 9 10 3 3 3 3 3 2 1 2 3 2 1 4 1 1 1 4 2 3 3 3 3 2 2 3 2 1 1
16 14 13 12 11 7 6 5 6 9 10 12 15 15 11 2 3 7 8 2 1 2 2 4 2 1 4 5 4 2 2 3 4 4 6 4 1 3 2 3 2 2 3 4 2 3 4
16 15 14 11 10 10 7 6 8 9 10 13 16 16 3 4 4 8 3 1 2 1 3 2 3 4 4 7 4 4 3 4 5 2 1 4 3 9 10 4 3 5 3 2 3 4 6
17 16 14 13 12 10 8 6 7 9 10 12 16 2 3 2 1 2 1 2 2 1 3 4 2 4 4 2 2 2 6 5 3 4 2 2 2 3 6 6 4 3 4 3 4 1 3
18 18 16 15 13 12 10 8 7 7 8 9 5 4 2 4 3 1 1 1 1 3 3 1 3 2 2 6 2 3 4 5 6 5 3 1 2 1 3 3 10 5 4 2 1 4 7
19 17 16 14 13 12 10 9 7 4 6 4 2 1 5 2 2 2 2 3 3 4 3 2 3 4 4 3 4 3 4 2 7 6 3 2 2 1 3 6 4 0 2 5 1 3 4
19 18 17 16 14 12 11 10 6 3 3 3 1 1 3 3 1 1 2 4 2 3 2 4 4 4 3 4 4 3 3 4 11 3 3 4 0 1 3 5 1 3 3 2 3 1 1
20 19 19 17 15 13 12 10 8 5 1 1 1 1 1 2 3 2 2 2 2 3 4 2 3 3 3 3 2 2 2 3 10 6 3 4 2 3 3 4 2 2 2 3 3 2 8
20 19 19 18 16 14 13 11 10 7 5 1 2 3 1 2 1 2 2 2 3 1 1 4 4 3 3 3 6 3 2 5 7 5 5 2 2 3 6 4 3 5 8 1 2 4 4
22 23 21 20 18 17 15 14 13 10 7 2 1 2 1 4 4 3 1 0 3 3 2 4 4 4 4 3 2 2 1 2 2 8 3 3 2 2 4 5 5 9 12 8 9 10 8
24 23 21 20 19 17 17 17 15 11 8 2 3 3 1 2 1 6 0 3 4 4 1 3 7 3 3 4 1 3 1 2 2 3 4 4 1 2 9 5 3 9 13 13 14 11 10
26 24 23 22 21 20 18 19 17 15 5 2 2 1 2 1 3 5 4 4 5 7 3 3 9 6 5 4 3 2 1 1 2 3 2 2 2 1 4 5 7 10 3 4 2 2 3
26 25 24 23 23 22 21 20 20 17 6 0 1 1 2 3 3 4 6 2 4 2 6 3 3 4 2 1 2 1 0 2 1 1 5 4 3 2 3 3 4 5 7 2 2 2 2
27 26 26 25 24 23 22 21 21 19 11 1 1 2 1 4 1 3 7 5 6 6 5 4 4 3 1 3 1 3 1 2 3 4 4 4 2 1 4 2 8 7 6 5 5 3 5
26 28 27 26 25 24 23 22 21 19 13 2 1 1 1 3 4 2 3 1 4 4 3 3 3 3 3 3 1 1 1 2 1 0 5 5 2 3 2 3 4 7 10 7 4 5 6
27 28 29 27 27 25 25 24 22 20 16 3 1 3 0 2 1 0 2 3 2 3 4 2 1 2 3 2 2 3 2 1 2 2 0 1 1 4 4 5 4 6 10 7 6 6 7
9 28 29 29 27 26 26 25 23 22 19 6 1 4 1 2 2 1 2 2 3 0 3 4 4 2 2 3 2 3 2 1 3 2 1 2 3 3 2 5 3 7 4 6 4 4 6
5 27 29 29 28 27 26 25 24 22 19 7 1 2 2 2 4 1 2 3 4 2 5 2 3 2 2 3 1 3 3 2 1 4 2 4 3 3 4 3 1 2 4 6 7 9 5
Wind_Direction
101 77 57 52 46 36 20 18 12 5 7 356 351 345 342 339 328 323 321 318 313 313 311 307 307 314 305 337 257 72 119 137 134 148 103 128 109 120 106 110 183 222 278 230 266 289 274
116 117 118 68 55 23 20 13 6 359 357 357 350 343 340 331 325 320 319 316 311 308 305 294 288 287 63 304 112 30 160 173 146 129 114 159 95 135 104 160 248 259 272 280 291 293 261
162 198 65 46 43 15 10 9 359 353 356 358 353 339 333 326 325 321 321 320 312 310 305 276 246 216 119 244 115 19 205 227 193 196 11 202 160 233 153 304 325 301 300 304 152 322 295
214 217 225 311 360 23 358 1 351 355 357 1 343 330 334 327 326 322 326 318 313 310 354 163 188 183 253 242 185 280 180 239 229 252 252 303 177 101 353 308 317 332 260 359 9 342 74
221 216 242 258 313 8 342 352 348 1 1 351 338 334 331 332 325 324 327 316 305 71 113 151 187 321 98 298 267 3 218 184 152 107 133 86 73 53 124 356 130 27 24 352 323 4 314
229 232 230 242 255 338 343 335 358 3 355 346 343 333 332 332 325 328 325 296 206 220 175 221 237 211 1 340 302 329 182 273 79 116 116 55 47 16 73 3 45 336 339 315 283 336 322
222 228 240 256 260 251 298 349 6 1 348 347 338 334 336 331 329 330 337 189 1 22 41 330 310 285 299 315 264 184 134 131 61 57 57 32 125 62 337 245 242 256 264 291 293 289 296
217 217 223 232 243 244 314 1 353 349 345 342 338 340 336 332 330 325 311 66 77 309 316 300 261 270 272 294 309 9 179 108 79 82 272 161 117 174 300 235 218 224 266 264 284 273 271
214 216 219 234 234 230 247 303 342 344 343 338 336 336 337 331 325 23 359 83 324 177 272 300 223 257 328 180 196 267 177 126 95 135 113 70 350 286 273 334 236 178 283 322 316 326 139
202 209 211 218 226 234 246 308 343 343 339 335 336 335 342 328 64 343 310 341 325 196 338 10 65 134 130 223 105 288 250 118 76 77 147 285 308 295 300 275 212 346 245 257 303 304 20
203 201 206 216 227 232 248 313 323 330 324 326 328 332 345 354 314 300 330 333 356 202 89 353 76 117 123 316 333 35 336 72 91 102 260 100 275 326 321 318 205 305 52 47 41 61 253
202 202 202 203 209 221 238 292 309 315 313 321 324 328 339 243 277 270 314 318 187 251 84 49 102 122 155 36 42 89 99 62 64 111 333 275 326 264 292 305 243 30 233 71 109 23 123
200 200 201 200 200 220 245 279 312 303 311 319 317 318 311 275 288 330 319 307 205 55 312 15 32 89 86 13 55 42 59 48 13 349 16 325 1 292 298 306 121 175 22 357 28 22 350
203 202 195 198 203 209 221 255 288 302 315 319 316 313 223 234 306 333 311 216 98 57 19 357 19 68 68 8 48 22 83 73 45 11 321 352 133 2 340 25 5 41 8 27 322 335 343
202 202 195 192 198 213 220 238 276 299 318 329 315 313 272 310 306 187 224 108 134 184 324 357 78 61 56 49 55 85 48 37 21 357 317 327 98 306 41 41 311 96 49 20 113 111 257
201 199 193 194 193 205 209 217 256 291 320 356 328 322 338 7 127 278 90 174 214 245 328 100 94 7 72 11 75 68 32 9 345 17 258 129 280 342 349 257 56 50 114 248 97 281 298
195 196 191 190 193 198 199 205 235 275 323 358 313 257 11 19 266 48 171 207 261 267 253 46 108 98 68 32 39 60 14 78 353 339 50 360 274 56 261 24 335 32 85 55 55 335 300
193 194 189 190 192 190 191 192 197 235 338 21 340 160 31 299 96 6 181 198 309 319 16 82 90 83 78 39 52 88 100 9 348 293 33 13 7 350 5 16 314 58 77 53 329 240 168
191 191 188 187 186 186 186 185 179 197 143 280 119 26 57 290 174 192 257 257 265 16 24 82 91 48 53 66 99 55 57 36 8 34 34 356 39 312 163 194 154 38 51 81 71 314 238
191 189 186 184 183 180 179 174 166 181 158 226 174 138 46 61 16 153 176 180 149 20 63 69 100 99 108 69 37 108 52 14 357 38 41 193 87 284 280 328 328 296 299 70 237 255 303
191 189 187 181 179 177 177 167 162 174 163 249 350 164 352 171 202 170 193 58 142 123 66 40 68 82 123 110 72 75 30 16 33 0 38 33 314 282 266 247 248 266 276 284 250 266 268
190 189 186 183 179 178 171 163 160 159 144 246 173 174 143 98 111 166 288 192 149 134 30 80 123 125 95 122 112 174 141 13 347 353 28 9 284 306 281 277 258 276 277 279 276 274 261
189 186 186 182 176 172 171 160 160 159 166 201 141 320 278 121 133 164 191 175 176 142 64 46 137 120 104 114 114 80 226 6 349 325 350 318 196 274 270 5 315 279 40 351 136 223 281
190 185 182 180 178 171 168 165 161 169 160 216 168 220 186 141 202 179 169 224 148 123 124 85 82 104 88 104 116 146 218 334 280 358 237 190 180 221 299 301 252 49 324 247 211 200 271
191 183 181 178 176 172 169 169 166 169 157 94 128 274 162 119 130 136 154 135 106 72 78 83 59 28 284 68 97 349 10 160 78 38 13 228 203 183 285 280 316 138 44 348 352 341 10
193 183 180 177 175 173 170 168 165 167 158 144 183 245 308 140 191 71 124 110 129 105 91 75 50 5 67 62 86 161 291 355 309 164 80 100 61 258 163 255 271 46 345 342 278 251 32
195 182 178 176 174 172 169 167 164 164 160 152 192 225 260 103 65 5 107 139 114 95 97 123 12 85 351 120 150 185 215 325 259 262 221 7 58 249 217 254 267 6 324 317 253 19 336
226 182 178 177 173 172 169 164 165 164 160 163 110 203 307 80 82 9 25 133 126 160 143 130 168 136 111 139 190 150 218 144 261 261 303 278 263 218 183 237 246 356 345 4 334 276 290
239 185 175 174 171 169 167 164 163 162 162 138 197 173 183 350 76 344 31 4 348 28 121 74 48 107 103 110 169 140 172 196 271 276 151 235 274 325 252 341 163 293 359 346 309 300 293